Location: Hamburg
(53.5554°N, 9.9941°E)
Time: 16:03:50
(UTC+02:00)

ISS - Pass Details

Date: 17 May 2021
Orbit: 419 x 422 km, 51.6° (Epoch: 25 June)

Event Time Altitude Azimuth Distance (km) Brightness Sun altitude
Rises 23:31:35 0° 252° (WSW) 2,369 0.2 -13.5°
Reaches altitude 10° 23:33:42 10° 248° (WSW) 1,506 -0.9 -13.6°
Maximum altitude 23:37:01 56° 170° (S) 508 -3.7 -13.8°
Drops below altitude 10° 23:40:20 10° 91° (E) 1,510 -1.2 -14.0°
Enters shadow 23:41:57 - 88° (E) 2,166 -0.3 -14.1°
